Domov               UVHVVR             MKGP            O straneh              
ZDRAVSTVENO VARSTVO RASTLIN
  MREŽA AGROMET. POSTAJ
 ► PROGNOSTIČNA OBVESTILA
AGROMETEOROLOŠKI PODATKI -
ARSO
OBVLADOVANJE TVEGANJ ZARADI
NEUGODNIH VREMENSKIH RAZMER
  ► NARAVNE NESREČE
  ► SUŠA/MOČA
  ► NAMAKANJE
  ► ŽLED (gozdarstvo)
KARTOGRAFSKI PRIKAZI
SPLETNE POVEZAVE
PROJEKTI IN PUBLIKACIJE

AGROMETEOROLOŠKA MREŽA: VREMENSKE POSTAJE IN FENOLOŠKA OPAZOVANJA

Pregled podatkov za lokacijo Dutovlje, meteorološka postaja 38560

Pregled senzorjev na lokaciji

ID Ime Zadnja
vrednost
Datum
zadnje
spremembe
Tip
senzorja
2016 Padavine (mm) 0 mm 15.12.2017 20:00 Rain-O-Matic
2017 Omočenost lista (U) 0 U 16.11.2017 05:00 A730WET
2018 Temperatura 2 m (°C) 7,59 °C 15.12.2017 20:00 50YA
2019 Relativna vlaga 2 m (% RH) 86,13 % RH 15.12.2017 20:00 50YA

Pregled podatkov zadnjih 24 ur

Zap.
št.
Datum in čas Dutovlje
Omočenost
lista
Padavine Relativna
vlaga
2
m
Temperatura
2
m
0 15.12.2017 20:00 0 86,13 7,59
1 15.12.2017 19:30 0 84,96 7,79
2 15.12.2017 19:00 0 85,91 7,91
3 15.12.2017 18:30 0 86,59 7,91
4 15.12.2017 18:00 0,2 88,23 7,86
5 15.12.2017 17:30 0 87,45 8,08
6 15.12.2017 17:00 0,4 85,13 8,47
7 15.12.2017 16:30 0,4 74,63 9,57
8 15.12.2017 16:00 0 69,77 10,11
9 15.12.2017 15:30 0 72,01 10,04
10 15.12.2017 15:00 0 72,45 10,11
11 15.12.2017 14:30 0,2 72,28 10,11
12 15.12.2017 14:00 0 69,47 10,55
13 15.12.2017 13:30 0 69,79 10,72
14 15.12.2017 13:00 0 71,5 10,53
15 15.12.2017 12:30 0 71,5 10,7
16 15.12.2017 12:00 0 70,99 10,74
17 15.12.2017 11:30 0 64,86 11,18
18 15.12.2017 11:00 0 60,76 11,4
19 15.12.2017 10:30 0 60,49 11,31
20 15.12.2017 10:00 0 60,68 11,23
21 15.12.2017 09:30 0,2 60,81 11,16
22 15.12.2017 09:00 0 64,74 10,84
23 15.12.2017 08:30 0 67,01 10,62
24 15.12.2017 08:00 0 65,25 10,6
25 15.12.2017 07:30 0 66,2 10,5
26 15.12.2017 07:00 0 65,81 10,43
27 15.12.2017 06:30 0 67,62 10,04
28 15.12.2017 06:00 0 71,21 9,69
29 15.12.2017 05:30 0 68,16 9,69
30 15.12.2017 05:00 0 71,77 9,38
31 15.12.2017 04:30 0 75,16 9,33
32 15.12.2017 04:00 0 76,61 9,06
33 15.12.2017 03:30 0 73,94 8,99
34 15.12.2017 03:00 0 75,85 8,77
35 15.12.2017 02:30 0 77,41 8,57
36 15.12.2017 02:00 0 78,24 8,5
37 15.12.2017 01:30 0 78 8,57
38 15.12.2017 01:00 0 79,12 8,57
39 15.12.2017 00:30 0 81,88 8,38
40 15.12.2017 00:00 0 86,59 7,77
41 14.12.2017 23:30 0 92,38 7,37
42 14.12.2017 23:00 0 99,93 6,42
43 14.12.2017 22:30 0 99,93 5,93
44 14.12.2017 22:00 0 99,93 6,06
45 14.12.2017 21:30 0 99,93 6,01
46 14.12.2017 21:00 0 99,93 6,03
© 2011 Ministrstvo za kmetijstvo, gozdarstvo in prehrano. Vse pravice pridržane.